Cherokee, IA

10:55 AM CDT on April 26, 2017 (GMT -0500)
Cherokee Municipal

Weather History for KCKP - May, 2013

Change the Weather History Date:

Tuesday, May 14, 2013

  Actual Average Record
Temperature  
Mean Temperature 76 °F -  
Max Temperature 102 °F 70 °F 102 °F (2013)
Min Temperature 52 °F 45 °F 28 °F (1973)
Cooling Degree Days 12    
Growing Degree Days 26 (Base 50)    
Moisture  
Dew Point 43 °F    
Average Humidity 37    
Maximum Humidity 91    
Minimum Humidity 10    
Precipitation  
Precipitation 0.00 in - - ()
Sea Level Pressure  
Sea Level Pressure 29.69 in    
Wind  
Wind Speed 9 mph (WSW)    
Max Wind Speed 25 mph    
Max Gust Speed 34 mph    
Visibility 10 miles    
Events      
Averages and records for this station are not official NWS values.
T = Trace of Precipitation, MM = Missing Value Source: NWS Daily Summary

Daily Weather History Graph

Daily Weather History Graph

Search for Another Location

Airport or City:

Trip Planner

Search our weather history database for the weather conditions in past years. The results will help you decide how hot, cold, wet, or windy it might be!

Date:

Astronomy

May. 14, 2013 Rise Set
Actual Time 6:00 AM CDT 8:37 PM CDT
Civil Twilight 5:28 AM CDT 9:09 PM CDT
Nautical Twilight 4:47 AM CDT 9:50 PM CDT
Astronomical Twilight 4:01 AM CDT 10:36 PM CDT
Moon 9:41 AM CDT (5/14) No Moon Set
Length of Visible Light 15h 41m
Length of Day
14h 36m
Waxing Crescent, 19% of the Moon is Illuminated
May 14
Waxing Crescent
May 17
First Quarter
May 24
Full
May 31
Last Quarter
Jun 8
New

Hourly Weather History & Observations

Time (CDT) Temp. Dew Point Humidity Pressure Visibility Wind Dir Wind Speed Gust Speed Precip Events Conditions
12:15 AM 68.4 °F 46.6 °F 46% 29.78 in 10.0 mi SW 6.9 mph - N/A   Clear
12:35 AM 67.3 °F 47.3 °F 49% 29.78 in 10.0 mi SW 5.8 mph - N/A   Clear
12:55 AM 66.6 °F 47.8 °F 51% 29.78 in 10.0 mi SSW 5.8 mph - N/A   Clear
1:15 AM 67.1 °F 48.2 °F 51% 29.78 in 10.0 mi SSW 4.6 mph - N/A   Clear
1:35 AM 66.2 °F 48.7 °F 53% 29.77 in 10.0 mi SSW 6.9 mph - N/A   Clear
1:55 AM 66.2 °F 49.1 °F 54% 29.77 in 10.0 mi SSW 6.9 mph - N/A   Clear
2:15 AM 64.4 °F 49.5 °F 58% 29.77 in 10.0 mi SSW 6.9 mph - N/A   Clear
2:35 AM 63.5 °F 49.6 °F 61% 29.77 in 10.0 mi SW 8.1 mph - N/A   Clear
2:55 AM 61.2 °F 49.8 °F 66% 29.77 in 10.0 mi SSW 5.8 mph - N/A   Clear
3:15 AM 61.0 °F 50.2 °F 68% 29.76 in 10.0 mi South 4.6 mph - N/A   Clear
3:35 AM 59.9 °F 50.9 °F 72% 29.77 in 10.0 mi SW 4.6 mph - N/A   Clear
3:55 AM 61.5 °F 50.2 °F 66% 29.76 in 10.0 mi South 3.5 mph - N/A   Clear
4:15 AM 61.0 °F 50.5 °F 68% 29.76 in 10.0 mi South 3.5 mph - N/A   Clear
4:35 AM 58.6 °F 51.4 °F 77% 29.77 in 10.0 mi South 3.5 mph - N/A   Clear
4:55 AM 58.5 °F 51.6 °F 78% 29.76 in 10.0 mi Calm Calm - N/A   Clear
5:15 AM 56.8 °F 50.5 °F 79% 29.76 in 10.0 mi Calm Calm - N/A   Clear
5:35 AM 55.9 °F 51.3 °F 84% 29.75 in 10.0 mi Calm Calm - N/A   Clear
5:55 AM 57.0 °F 50.7 °F 79% 29.75 in 10.0 mi Calm Calm - N/A   Clear
6:15 AM 52.2 °F 49.5 °F 91% 29.75 in 10.0 mi Calm Calm - N/A   Clear
6:35 AM 55.8 °F 51.1 °F 84% 29.75 in 10.0 mi SSE 3.5 mph - N/A   Clear
6:55 AM 54.1 °F 50.7 °F 88% 29.75 in 10.0 mi Calm Calm - N/A   Clear
7:15 AM 56.1 °F 52.0 °F 86% 29.74 in 10.0 mi Calm Calm - N/A   Clear
7:35 AM 60.4 °F 54.0 °F 79% 29.73 in 10.0 mi Calm Calm - N/A   Clear
7:55 AM 64.2 °F 54.9 °F 72% 29.73 in 10.0 mi South 4.6 mph - N/A   Clear
8:15 AM 66.7 °F 55.6 °F 67% 29.73 in 10.0 mi South 6.9 mph - N/A   Clear
8:35 AM 69.3 °F 55.8 °F 62% 29.73 in 10.0 mi South 5.8 mph - N/A   Clear
8:55 AM 71.6 °F 55.9 °F 58% 29.72 in 10.0 mi South 8.1 mph - N/A   Clear
9:15 AM 74.5 °F 54.9 °F 50% 29.70 in 10.0 mi South 8.1 mph - N/A   Clear
9:35 AM 78.3 °F 52.9 °F 41% 29.69 in 10.0 mi South 10.4 mph - N/A   Clear
9:55 AM 81.1 °F 51.3 °F 35% 29.69 in 10.0 mi South 12.7 mph 17.3 mph N/A   Clear
10:15 AM 83.7 °F 49.1 °F 30% 29.68 in 10.0 mi SSW 12.7 mph 18.4 mph N/A   Clear
10:35 AM 85.5 °F 49.5 °F 29% 29.67 in 10.0 mi SSW 16.1 mph 20.7 mph N/A   Clear
10:55 AM 86.9 °F 49.1 °F 27% 29.66 in 10.0 mi SSW 17.3 mph - N/A   Clear
11:15 AM 89.4 °F 48.6 °F 24% 29.65 in 10.0 mi SSW 20.7 mph 25.3 mph N/A   Clear
11:35 AM 90.9 °F 45.1 °F 21% 29.64 in 10.0 mi SSW 21.9 mph 28.8 mph N/A   Clear
11:55 AM 92.5 °F 44.4 °F 19% 29.64 in 10.0 mi SSW 18.4 mph 27.6 mph N/A   Clear
12:15 PM 94.3 °F 43.0 °F 17% 29.63 in 10.0 mi SW 20.7 mph 28.8 mph N/A   Clear
12:35 PM 94.5 °F 44.8 °F 18% 29.62 in 10.0 mi SSW 17.3 mph 26.5 mph N/A   Clear
12:55 PM 97.2 °F 43.2 °F 16% 29.62 in 10.0 mi SSW 24.2 mph 28.8 mph N/A   Clear
1:15 PM 97.9 °F 44.1 °F 16% 29.61 in 10.0 mi SSW 19.6 mph 25.3 mph N/A   Clear
1:35 PM 99.5 °F 39.6 °F 13% 29.60 in 10.0 mi SSW 25.3 mph 31.1 mph N/A   Clear
1:55 PM 101.3 °F 36.5 °F 11% 29.59 in 10.0 mi SW 25.3 mph 34.5 mph N/A   Clear
2:15 PM 99.0 °F 38.3 °F 12% 29.58 in 10.0 mi SSW 21.9 mph 32.2 mph N/A   Clear
2:35 PM 100.9 °F 33.8 °F 10% 29.58 in 10.0 mi WSW 21.9 mph 31.1 mph N/A   Clear
2:55 PM 100.2 °F 34.0 °F 10% 29.57 in 10.0 mi WSW 20.7 mph 31.1 mph N/A   Clear
3:15 PM 99.9 °F 38.3 °F 12% 29.58 in 10.0 mi WNW 21.9 mph 32.2 mph N/A   Clear
3:35 PM 100.4 °F 36.1 °F 11% 29.58 in 10.0 mi WNW 19.6 mph 28.8 mph N/A   Clear
3:55 PM 97.7 °F 36.1 °F 12% 29.58 in 10.0 mi West 18.4 mph 29.9 mph N/A   Clear
4:15 PM 97.0 °F 35.6 °F 12% 29.58 in 10.0 mi NW 12.7 mph 21.9 mph N/A   Clear
4:35 PM 97.3 °F 36.0 °F 12% 29.59 in 10.0 mi NW 11.5 mph 17.3 mph N/A   Clear
4:55 PM 97.9 °F 37.2 °F 12% 29.59 in 10.0 mi NW 12.7 mph 19.6 mph N/A   Clear
5:15 PM 96.3 °F 35.8 °F 12% 29.59 in 10.0 mi WNW 13.8 mph 20.7 mph N/A   Clear
5:35 PM 97.0 °F 36.0 °F 12% 29.59 in 10.0 mi NNW 12.7 mph 21.9 mph N/A   Clear
5:55 PM 97.0 °F 36.0 °F 12% 29.59 in 10.0 mi NNW 17.3 mph 24.2 mph N/A   Clear
6:15 PM 95.2 °F 35.6 °F 12% 29.60 in 10.0 mi NNW 17.3 mph 25.3 mph N/A   Clear
6:35 PM 94.1 °F 34.7 °F 12% 29.61 in 10.0 mi NNW 18.4 mph - N/A   Clear
6:55 PM 93.0 °F 33.8 °F 12% 29.62 in 10.0 mi North 13.8 mph 21.9 mph N/A   Clear
7:15 PM 91.4 °F 35.1 °F 14% 29.62 in 10.0 mi NNW 18.4 mph - N/A   Clear
7:35 PM 89.4 °F 36.9 °F 16% 29.64 in 10.0 mi NNW 13.8 mph 25.3 mph N/A   Clear
7:55 PM 86.7 °F 36.0 °F 16% 29.65 in 10.0 mi North 15.0 mph 25.3 mph N/A   Clear
8:15 PM 84.7 °F 30.7 °F 14% 29.67 in 10.0 mi North 12.7 mph 19.6 mph N/A   Clear
8:35 PM 82.2 °F 28.8 °F 14% 29.68 in 10.0 mi North 12.7 mph 17.3 mph N/A   Clear
8:55 PM 80.4 °F 28.6 °F 15% 29.69 in 10.0 mi North 10.4 mph - N/A   Clear
9:15 PM 78.8 °F 29.7 °F 17% 29.71 in 10.0 mi North 11.5 mph - N/A   Clear
9:35 PM 76.5 °F 30.4 °F 18% 29.72 in 10.0 mi North 9.2 mph - N/A   Clear
9:55 PM 75.4 °F 29.5 °F 18% 29.73 in 10.0 mi North 9.2 mph - N/A   Clear
10:15 PM 74.3 °F 29.8 °F 19% 29.74 in 10.0 mi North 8.1 mph - N/A   Clear
10:35 PM 72.7 °F 29.7 °F 20% 29.75 in 10.0 mi North 8.1 mph - N/A   Clear
11:15 PM 71.2 °F 29.1 °F 21% 29.75 in 10.0 mi North 8.1 mph - N/A   Clear
11:35 PM 70.3 °F 29.3 °F 22% 29.76 in 10.0 mi North 6.9 mph - N/A   Clear
11:55 PM 69.6 °F 29.5 °F 22% 29.77 in 10.0 mi North 9.2 mph - N/A   Clear